Location: OLV Amersfoort
(52.1552°N, 5.3872°E)
Time: 19:11:47
(UTC+01:00)

ISS - Visible Passes

Search period start: 12 February 2016 00:00
Search period end: 22 February 2016 00:00
Orbit: 399 x 407 km, 51.6° (Epoch: 12 February)

Date Brightness Start Highest point End Pass type
(mag) Time Alt. Az. Time Alt. Az. Time Alt. Az.
12 Feb -3.3 18:19:27 10° W 18:22:43 82° S 18:25:58 10° E visible
12 Feb -2.9 19:55:53 10° W 19:58:51 58° SW 19:58:51 58° SW visible
13 Feb -3.3 19:03:11 10° W 19:06:26 75° S 19:08:22 22° ESE visible
13 Feb -0.6 20:39:45 10° W 20:41:00 19° WSW 20:41:00 19° WSW visible
14 Feb -2.5 19:46:57 10° W 19:50:02 41° SSW 19:50:33 38° S visible
15 Feb -2.8 18:54:11 10° W 18:57:24 56° SSW 19:00:10 13° ESE visible
15 Feb -0.7 20:31:07 10° W 20:32:49 17° SW 20:32:49 17° SW visible
16 Feb -1.5 19:38:04 10° W 19:40:51 26° SSW 19:42:30 17° SSE visible
17 Feb -2.0 18:45:11 10° W 18:48:14 37° SSW 18:51:16 10° SE visible
18 Feb -0.5 19:29:29 10° WSW 19:31:30 15° SW 19:33:31 10° S visible
19 Feb -1.0 18:36:17 10° W 18:38:57 23° SSW 18:41:35 10° SSE visible
